• en Suisse
  • Liste des pays
  • À 7 jours
  • Température de l'eau
  • Carte satellitaire
  • Carte météo
  • Widgets météo
  • user-avatar
    Se connecter

    Météo par heure à Wellington

    Ce jour, 17 Janvier, Mercredi

    Heure Température Précipitation Vent Pression Humidité
    00:00 +19°C° 0 mm 3 m/s 754 mmHg 84%
    01:00 +19°C° 0 mm 4 m/s 754 mmHg 84%
    02:00 +19°C° 0 mm 5 m/s 754 mmHg 85%
    03:00 +19°C° 0 mm 5 m/s 754 mmHg 85%
    04:00 +17°C° 0 mm 6 m/s 754 mmHg 85%
    05:00 +17°C° 0 mm 6 m/s 754 mmHg 85%
    06:00 +18°C° 0 mm 4 m/s 753 mmHg 86%
    07:00 +20°C° 0 mm 4 m/s 753 mmHg 78%
    08:00 +21°C° 0 mm 5 m/s 753 mmHg 70%
    09:00 +22°C° 0 mm 5 m/s 753 mmHg 62%
    10:00 +23°C° 0 mm 4 m/s 753 mmHg 58%
    11:00 +25°C° 0 mm 4 m/s 753 mmHg 54%
    12:00 +25°C° 0 mm 5 m/s 753 mmHg 52%
    13:00 +26°C° 0 mm 5 m/s 753 mmHg 52%
    14:00 +26°C° 0 mm 4 m/s 753 mmHg 52%
    15:00 +27°C° 0 mm 3 m/s 752 mmHg 52%
    16:00 +26°C° 0,1 mm 3 m/s 752 mmHg 58%
    17:00 +25°C° 0,1 mm 2 m/s 752 mmHg 63%
    18:00 +22°C° 0 mm 4 m/s 752 mmHg 70%
    19:00 +21°C° 2,2 mm 4 m/s 752 mmHg 76%
    20:00 +20°C° 2,2 mm 4 m/s 752 mmHg 82%
    21:00 +19°C° 2,2 mm 3 m/s 753 mmHg 88%
    22:00 +19°C° 4,2 mm 5 m/s 752 mmHg 90%
    23:00 +17°C° 4,2 mm 6 m/s 752 mmHg 92%

    Demain, 18 Janvier, Jeudi

    Heure Température Précipitation Vent Pression Humidité
    00:00 +17°C° 0 mm 9 m/s 752 mmHg 94%
    01:00 +17°C° 1,5 mm 8 m/s 752 mmHg 93%
    02:00 +17°C° 1,5 mm 7 m/s 752 mmHg 93%
    03:00 +17°C° 1,5 mm 7 m/s 752 mmHg 92%
    04:00 +17°C° 0,4 mm 6 m/s 752 mmHg 91%
    05:00 +17°C° 0,4 mm 6 m/s 752 mmHg 90%
    06:00 +17°C° 0,4 mm 5 m/s 752 mmHg 90%
    07:00 +19°C° 0,1 mm 6 m/s 752 mmHg 88%
    08:00 +20°C° 0,1 mm 6 m/s 752 mmHg 86%
    09:00 +20°C° 0,1 mm 6 m/s 752 mmHg 84%
    10:00 +20°C° 0,4 mm 6 m/s 751 mmHg 87%
    11:00 +20°C° 0,4 mm 6 m/s 751 mmHg 90%
    12:00 +19°C° 0,4 mm 6 m/s 751 mmHg 94%
    13:00 +19°C° 0,3 mm 6 m/s 751 mmHg 94%
    14:00 +19°C° 0,3 mm 6 m/s 751 mmHg 93%
    15:00 +19°C° 0,3 mm 5 m/s 751 mmHg 93%
    16:00 +20°C° 0,3 mm 5 m/s 750 mmHg 93%
    17:00 +20°C° 0,3 mm 5 m/s 750 mmHg 92%
    18:00 +20°C° 0,3 mm 5 m/s 750 mmHg 92%
    19:00 +20°C° 0,1 mm 5 m/s 750 mmHg 93%
    20:00 +19°C° 0,1 mm 5 m/s 751 mmHg 94%
    21:00 +19°C° 0,1 mm 5 m/s 751 mmHg 95%
    22:00 +19°C° 0,1 mm 5 m/s 751 mmHg 95%
    23:00 +19°C° 0,1 mm 5 m/s 751 mmHg 95%

    Après-demain, 19 Janvier, Vendredi

    Heure Température Précipitation Vent Pression Humidité
    00:00 +19°C° 0,1 mm 5 m/s 751 mmHg 95%
    01:00 +19°C° 0 mm 5 m/s 751 mmHg 96%
    02:00 +19°C° 0 mm 4 m/s 751 mmHg 96%
    03:00 +19°C° 0 mm 4 m/s 751 mmHg 96%
    04:00 +19°C° 0 mm 4 m/s 752 mmHg 96%
    05:00 +19°C° 0 mm 3 m/s 752 mmHg 95%
    06:00 +19°C° 0 mm 2 m/s 752 mmHg 95%
    07:00 +20°C° 0 mm 2 m/s 753 mmHg 91%
    08:00 +21°C° 0 mm 2 m/s 753 mmHg 88%
    09:00 +23°C° 0 mm 2 m/s 753 mmHg 84%
    10:00 +22°C° 0 mm 3 m/s 753 mmHg 81%
    11:00 +24°C° 0 mm 3 m/s 753 mmHg 79%
    12:00 +24°C° 0 mm 3 m/s 753 mmHg 77%
    13:00 +24°C° 0 mm 3 m/s 753 mmHg 75%
    14:00 +25°C° 0 mm 4 m/s 753 mmHg 74%
    15:00 +25°C° 0 mm 4 m/s 753 mmHg 73%
    16:00 +23°C° 0 mm 4 m/s 753 mmHg 74%
    17:00 +23°C° 0 mm 5 m/s 753 mmHg 76%
    18:00 +23°C° 0 mm 5 m/s 753 mmHg 78%
    19:00 +22°C° 0 mm 5 m/s 753 mmHg 82%
    20:00 +21°C° 0 mm 5 m/s 753 mmHg 87%
    21:00 +20°C° 0 mm 5 m/s 754 mmHg 91%
    22:00 +20°C° 0 mm 6 m/s 754 mmHg 92%
    23:00 +19°C° 0 mm 6 m/s 754 mmHg 92%

    20 Janvier, Samedi

    Heure Température Précipitation Vent Pression Humidité
    00:00 +19°C° 0 mm 6 m/s 754 mmHg 93%
    01:00 +18°C° 0 mm 7 m/s 754 mmHg 92%
    02:00 +18°C° 0 mm 7 m/s 753 mmHg 91%
    03:00 +20°C° 0 mm 8 m/s 753 mmHg 90%
    04:00 +20°C° 0 mm 8 m/s 753 mmHg 89%
    05:00 +20°C° 0 mm 8 m/s 753 mmHg 88%
    06:00 +20°C° 0 mm 8 m/s 753 mmHg 88%
    07:00 +21°C° 0 mm 8 m/s 754 mmHg 83%
    08:00 +22°C° 0 mm 8 m/s 754 mmHg 79%
    09:00 +23°C° 0 mm 8 m/s 754 mmHg 75%
    10:00 +23°C° 0 mm 9 m/s 754 mmHg 75%
    11:00 +23°C° 0 mm 9 m/s 754 mmHg 76%
    12:00 +23°C° 0 mm 9 m/s 754 mmHg 77%
    13:00 +23°C° 0 mm 9 m/s 753 mmHg 76%
    14:00 +24°C° 0 mm 9 m/s 753 mmHg 76%
    15:00 +24°C° 0 mm 8 m/s 753 mmHg 76%
    16:00 +24°C° 0 mm 8 m/s 753 mmHg 77%
    17:00 +23°C° 0 mm 8 m/s 753 mmHg 78%
    18:00 +23°C° 0 mm 8 m/s 753 mmHg 80%
    19:00 +22°C° 0 mm 7 m/s 754 mmHg 84%
    20:00 +21°C° 0 mm 7 m/s 754 mmHg 88%
    21:00 +20°C° 0 mm 6 m/s 754 mmHg 92%
    22:00 +20°C° 0 mm 6 m/s 754 mmHg 92%
    23:00 +20°C° 0 mm 6 m/s 755 mmHg 91%

    21 Janvier, Dimanche

    Heure Température Précipitation Vent Pression Humidité
    00:00 +20°C° 0 mm 6 m/s 755 mmHg 91%
    01:00 +20°C° 0 mm 6 m/s 754 mmHg 92%
    02:00 +20°C° 0 mm 6 m/s 754 mmHg 92%
    03:00 +19°C° 0 mm 5 m/s 754 mmHg 93%
    04:00 +19°C° 0 mm 6 m/s 754 mmHg 93%
    05:00 +20°C° 0 mm 6 m/s 754 mmHg 92%
    06:00 +20°C° 0 mm 6 m/s 755 mmHg 92%
    07:00 +21°C° 0 mm 6 m/s 755 mmHg 87%
    08:00 +22°C° 0 mm 6 m/s 755 mmHg 82%
    09:00 +23°C° 0 mm 6 m/s 755 mmHg 77%
    10:00 +24°C° 0 mm 6 m/s 755 mmHg 72%
    11:00 +26°C° 0 mm 6 m/s 755 mmHg 67%
    12:00 +27°C° 0 mm 6 m/s 755 mmHg 62%
    13:00 +27°C° 0 mm 6 m/s 754 mmHg 63%
    14:00 +27°C° 0 mm 6 m/s 754 mmHg 63%
    15:00 +27°C° 0 mm 6 m/s 754 mmHg 63%
    16:00 +27°C° 0 mm 5 m/s 754 mmHg 66%
    17:00 +26°C° 0 mm 5 m/s 754 mmHg 70%
    18:00 +26°C° 0 mm 5 m/s 753 mmHg 73%
    19:00 +23°C° 0 mm 5 m/s 754 mmHg 80%
    20:00 +22°C° 0 mm 5 m/s 754 mmHg 86%
    21:00 +21°C° 0 mm 5 m/s 754 mmHg 92%
    22:00 +21°C° 0 mm 5 m/s 754 mmHg 92%
    23:00 +21°C° 0 mm 5 m/s 754 mmHg 92%

    22 Janvier, Lundi

    Heure Température Précipitation Vent Pression Humidité
    00:00 +21°C° 0 mm 6 m/s 754 mmHg 92%
    01:00 +21°C° 0,1 mm 6 m/s 753 mmHg 93%
    02:00 +20°C° 0,1 mm 6 m/s 753 mmHg 93%
    03:00 +20°C° 0,1 mm 6 m/s 752 mmHg 94%
    04:00 +20°C° 0,5 mm 6 m/s 752 mmHg 95%
    05:00 +20°C° 0,5 mm 6 m/s 752 mmHg 96%
    06:00 +20°C° 0,5 mm 5 m/s 752 mmHg 97%
    07:00 +20°C° 0,6 mm 5 m/s 753 mmHg 96%
    08:00 +20°C° 0,6 mm 5 m/s 753 mmHg 96%
    09:00 +20°C° 0,6 mm 5 m/s 753 mmHg 95%
    10:00 +21°C° 0,2 mm 5 m/s 753 mmHg 88%
    11:00 +22°C° 0,2 mm 5 m/s 752 mmHg 80%
    12:00 +23°C° 0,2 mm 5 m/s 752 mmHg 73%
    13:00 +25°C° 0 mm 5 m/s 752 mmHg 69%
    14:00 +26°C° 0 mm 5 m/s 751 mmHg 66%
    15:00 +26°C° 0 mm 6 m/s 751 mmHg 62%
    16:00 +26°C° 0,1 mm 6 m/s 751 mmHg 67%
    17:00 +25°C° 0,1 mm 5 m/s 751 mmHg 73%
    18:00 +23°C° 0,1 mm 5 m/s 750 mmHg 78%
    19:00 +22°C° 0 mm 5 m/s 751 mmHg 82%
    20:00 +21°C° 0 mm 5 m/s 751 mmHg 86%
    21:00 +20°C° 0 mm 6 m/s 751 mmHg 90%
    22:00 +20°C° 0 mm 6 m/s 751 mmHg 91%
    23:00 +20°C° 0 mm 6 m/s 751 mmHg 91%
    Voir plus